Location: Newark
(48.6461°N, 4.3644°W)
Time: 13:05:00
(UTC+00:00)

S-56A Canister/Altair - Pass Details

Date: 24 January 2020
Orbit: 633 x 2500 km, 38.9° (Epoch: 24 February)

Event Time Altitude Azimuth Distance (km) Brightness Sun altitude
Rises 21:11:29 0° 232° (SW) 3,797 11.4 -40.7°
Enters shadow 21:14:09 - 223° (SW) 2,854 10.6 -41.1°
Reaches altitude 10° 21:15:01 10° 219° (SW) 2,564 - -41.2°
Maximum altitude 21:19:24 22° 169° (S) 1,583 - -41.9°
Drops below altitude 10° 21:23:04 10° 117° (ESE) 2,098 - -42.5°
Sets 21:25:38 0° 102° (ESE) 2,939 - -42.9°
